Погода в Ясне

Россия / Псковская область     57°36′52″N   29°27′53″E
темп.,
°C
ветер,
м/с
пор.,
м/с
влажн.,
%
обл.,
%
осадки,
мм/ч
давл.,
гПа
погр.,
м
6 мая, чт
чт600:00+6ююв31097100 0.1 1000220
03:00+6ююв1295100 1.6 99844
06:00+5ссв2699100 3.8 995255
09:00+4сз4797100 10.4 994647
12:00+7з4689100 2.9 995779
15:00+8юз51084100 3.5 9961257
18:00+6юз71290100 1.0 9971114
21:00+4юз61296100 1.5 9991046
7 мая, пт
пт700:00+4юз61292100 0.1 10011184
03:00+4юз61388100 0.2 10011242
06:00+3юз6128990 0.0 1002976
09:00+6юз6117595 0.1 10031286
12:00+8юз596491 0.2 10041559
15:00+9зюз5956100 0.2 10051661
18:00+10юз2459100 0.1 10041204
21:00+6в1174100 0.1 100410
8 мая, сб
сб800:00+5всв1295100 1.2 100359
03:00+5с2598100 4.7 1001595
06:00+4ссз3698100 2.2 1001850
09:00+4ссз2598100 3.9 1002755
12:00+5ссз4794100 1.1 1003867
15:00+5зсз4897100 2.6 1004827
18:00+4зсз61194100 1.2 1006897
21:00+3зсз4119127 1.3 1008609
9 мая, вс
вс900:00+2зсз5149298 0.0 1010764
03:00+1зсз514895 0.0 1013490
06:000з412913 0.0 1015392
09:00+6з59622 0.0 1017750
12:00+10зюз5744100 0.0 10181526
15:00+11зюз5740100 0.0 10191743
18:00+11юз4753100 0.0 10201815
21:00+6ююз257479 0.0 102180
10 мая, пн
пн1000:00+5ююз3117599 0.0 1022283
03:00+6ю41283100 0.1 1023424
06:00+7ююз51477100 0.1 1023518
09:00+12ююз5126686 0.1 1023536
12:00+16ююз695189 0.0 10241037
15:00+18ююз694820 0.0 10241381
18:00+18ююз59575 0.0 10231292
21:00+13ю5137445 0.0 1025539